Regional Weather Roundup
Issued by NWS Wakefield, VA

Home | Current Version | Previous Version | Graphics & Text | Print | Product List | Glossary On
Versions: 1 2 3 4 5 6 7 8 9 10 11 12 13 14 15 16 17 18 19 20 21 22 23 24 25 26 27 28 29 30 31 32 33 34 35 36 37 38 39 40 41 42 43 44 45 46 47 48 49 50
105
ASUS41 KAKQ 270415
RWRAKQ

REGIONAL WEATHER ROUNDUP
NATIONAL WEATHER SERVICE WAKEFIELD VA
1200 AM EDT TUE SEP 27 2016

Note: "fair" indicates few or no clouds below 12,000 feet with no
significant weather and/or obstructions to visibility. * = Denotes
station may not report precipitation (e.g., rain,snow,etc.),
thunder or fog.

VAZ042-051-052>054-056-270500-
NORTHERN VIRGINIA

CITY           SKY/WX    TMP DP  RH WIND       PRES   REMARKS
WASH NATIONAL  CLOUDY    66  65  96 S9        29.98F
DULLES         CLOUDY    64  62  93 S6        29.97F
FORT BELVOIR   CLOUDY    65  63  94 CALM      29.97F
QUANTICO       MOCLDY    68  64  87 SW8       29.98F
FREDERICKSBRG* CLOUDY    66  66 100 S5        29.97F
STAFFORD*      MOCLDY    64  64  99 S3        30.01F
WARRENTON      MOCLDY    65  61  85 CALM      29.97F
CULPEPER*      CLOUDY    65  65  98 CALM      29.99S
MANASSAS*      CLOUDY    64  64 100 S3        29.97F
LEESBURG*      CLOUDY    64  64 100 S6        29.98F
WINCHESTER     CLOUDY    64  63  94 CALM      29.97S
FRONT ROYAL*   MOCLDY    64  63  94 SW7       29.96S
LURAY*         RAIN     N/A N/A N/A S3        29.99S
$$

VAZ048-049-060>072-079>083-270500-
CENTRAL AND SOUTH CENTRAL VIRGINIA

CITY           SKY/WX    TMP DP  RH WIND       PRES   REMARKS
RICHMOND       TSTM      66  65  96 S7        29.99F
CHESTERFIELD*  CLOUDY    66  54  63 S6        30.01F
PETERSBURG*    LGT RAIN N/A N/A N/A S5        30.02F
HANOVER        LGT RAIN  67  64  90 S7        30.01F
TAPPAHANNOCK*  MOCLDY    70  61  74 S6        30.01F
QUINTON*       CLOUDY    66  65  96 W6        30.02S
CHARLOTTSVILLE CLOUDY    67  64  90 CALM      29.98F
GORDONSVILLE*  CLOUDY    64  64 100 CALM      29.98F
ORANGE*          N/A     64  64 100 CALM      30.00F
LOUISA*        CLOUDY    70  66  88 S3        29.97F
BUMPASS*       FAIR      65  65 100 CALM      29.99F
FARMVILLE*     CLOUDY    68  67  96 SW3       29.99S
CREWE*         MOCLDY    67  67 100 CALM      30.01S
FORT PICKETT*  MOCLDY    67  66  97 S9G16     30.01F
CHASE CITY*    CLOUDY    68  67  94 CALM      30.02F
CLARKSVILLE*   FAIR      68  68 100 S3        30.01F
SOUTH HILL*    CLOUDY    67  66  97 S8        30.08S
LAWRENCEVILLE* CLOUDY    68  65  93 CALM      30.02F
EMPORIA*       CLOUDY    68  64  88 SE5       30.03F
$$

VAZ088>098-270500-
SOUTHEAST VIRGINIA

CITY           SKY/WX    TMP DP  RH WIND       PRES   REMARKS
NORFOLK        CLOUDY    72  65  78 S9        30.02F
VIRGINIA BEACH MOCLDY    70  64  81 S5        30.01F
NORFOLK NAVAL  CLOUDY    74  65  73 S6        30.03F
WEST POINT*    CLOUDY    71  63  76 CALM      30.02F
SALUDA*        CLOUDY    69  66  92 SW6       30.00S
NEWPORT NEWS   CLOUDY    73  65  75 S9        30.01F
LANGLEY AFB    LGT RAIN  73  66  78 SW9       30.00F
FORT EUSTIS    MOCLDY    73  66  79 S9        29.99F
WILLIAMSBURG*  CLEAR     73  66  78 S7        30.02F
HR EXEC AP*    CLOUDY    72  64  78 SW3       30.04F
FRANKLIN*      CLOUDY    70  65  83 S6        30.03S
US460-WAKEFLD  CLOUDY    70  63  78 S5        30.01F
$$

VAZ020-022-025-037-045-270500-
WEST CENTRAL AND SOUTHWEST VIRGINIA

CITY           SKY/WX    TMP DP  RH WIND       PRES   REMARKS
STAUNTON*      CLOUDY    63  62  97 CALM      30.02S
WAYNESBORO*    CLOUDY    63  62  96 CALM      30.01S
HOT SPRINGS VA RAIN      52  52 100 W9        30.08F
LYNCHBURG      CLOUDY    65  65 100 S7        30.02F
DANVILLE       LGT RAIN  68  67  96 SW7       30.03F
SOUTH BOSTON*  FAIR      65  64  96 CALM      30.01F
MARTINSVILLE   CLOUDY    65  64  96 CALM      30.06S
ROANOKE        CLOUDY    67  66  97 SE5       30.03F FOG
BLACKSBURG     FOG       65  65 100 CALM      30.08S VSB 3/4
DUBLIN*        CLOUDY    66  65  98 SW5       30.07S
MARION*        RAIN      66  65  96 W8        30.11S
HILLSVILLE*    MOCLDY    63  63 100 SW5       30.08F
RICHLANDS*     CLOUDY    65  65  99 W6        30.09S
WISE*          CLOUDY    64  63  94 NW3       30.11S FOG
ABINGDON*      CLOUDY    68  67  95 CALM      30.08S
$$

MDZ021>025-VAZ099-100-270500-
SOUTHERN MARYLAND AND THE DELMARVA PENINSULA

CITY           SKY/WX    TMP DP  RH WIND       PRES   REMARKS
PATUXENT RIVER CLOUDY    68  62  81 S6        29.98F
BAY BRIDGE APT CLOUDY    68  63  83 MISG      29.98S
LEONARDTOWN    CLOUDY    66  61  82 CALM      30.00F
DOVER          LGT RAIN  68  68  99 S9        29.96F
GEORGETOWN     CLOUDY    67  64  90 S8        30.00F
EASTON         NOT AVBL
CAMBRIDGE      CLOUDY    68  64  88 S3        29.98F
SALISBURY      CLOUDY    66  65  96 CALM      30.01F
OCEAN CITY     LGT RAIN  74  68  81 SW13      30.01F
WALLOPS ISLAND LGT RAIN  72  69  90 SW6       30.02F
ACCOMACK*      CLOUDY    72  66  79 S13       30.01F
$$

NCZ012>017-030>032-270500-
NORTH CENTRAL AND EASTERN NORTH CAROLINA

CITY           SKY/WX    TMP DP  RH WIND       PRES   REMARKS
ROANOKE RAPIDS FAIR      68  64  88 S5        30.03S
RALEIGH        LGT RAIN  72  68  87 S8        30.04F
ELIZABETH CITY CLOUDY    73  65  75 S6        30.04F
AHOSKIE*       PTCLDY    68  65  90 S5        30.03F
EDENTON*       CLOUDY    74  68  80 S6        30.04F
CURRITUCK*     CLOUDY    73  67  82 CALM      30.04F
KILL DEVIL HLS CLOUDY    74  70  85 S5        30.03F
MANTEO         CLOUDY    76  68  76 S8        30.05F
CAPE HATTERAS  MOCLDY    78  66  66 S14       30.05F
TARBORO*       MOCLDY    69  66  92 CALM      30.04F
GOLDSBORO      PTCLDY    70  70 100 CALM      30.02F
WASHINGTON     CLEAR     66  65  97 CALM      30.04F
GREENVILLE     MOCLDY    70  68  94 SW3       30.06S
NEW BERN       PTCLDY    69  66  90 CALM      30.05F
WILMINGTON     CLOUDY    71  68  90 CALM      30.02F
$$

VAZ048-270500-
ELSEWHERE

CITY           SKY/WX    TMP DP  RH WIND       PRES   REMARKS
HARRISBURG PA  RAIN      63  62  97 CALM      29.95S
BALTIMORE      CLOUDY    64  60  87 CALM      29.97F
ANNAPOLIS      CLOUDY    67  62  84 S7        29.97F
ANDREWS AFB    CLOUDY    64  62  93 S5        29.97F
PHILADELPHIA   CLOUDY    70  60  70 S9        29.97F
HENDERSON NC   CLOUDY    66  64  91 S5        30.03F
GREENSBORO     LGT RAIN  67  67 100 S8        30.04F
ROCKY MOUNT    CLOUDY    69  67  93 S3        30.03F
$$

VAZ100-270500-
MARINE

STATION/POSITION TIME  TEMP    WIND        PRES    WAVE   SWELL
                       AIR SEA DIR/SP/G            HT/PER HT/PER
                 (UTC) (F)     (DEG/KT/KT) (MB)    (FT/S) (FT/S)
BRANDYWINE LGT   0300   71     200/ 13/ 15   N/A
CAPE MAY NJ      0300   71 72  180/  6/  7 1016.0F
LEWES DE         0300   69 72  170/  3/  5 1016.2F
OCEAN-CITY-INLET 0300   74 73  210/ 16/ 21 1017.0F
WACHAPREAGUE VA  0300   73 74  190/  5/  8 1016.6F
THOMAS POINT MD  0400   68 74  220/ 13/ 14 1016.4R
GOOSES REEF MD   0400   72 75  210/ 16/ 17 1015.4F   2/ 3
COVE POINT MD    0300   70     190/ 15/ 19 1016.0F
SOLOMONS ISLAND  0300   69 75  150/  8/  9   N/A
BISHOPS HEAD MD  0300   71 71  180/  8/  9 1016.5F
PINEY POINT MD   0300          200/ 12/ 13   N/A
POTOMAC MD       0400   72 75  220/ 12/ 14 1014.8F   1/ 2
CAMBRIDGE MD     0300   68 74  170/  4/  6 1015.0F
LEWISETTA VA     0300   70 74  210/  6/  7 1015.6F
RAPPAHANNOCK LGT 0300          170/ 13/ 15 1016.9F
STINGRAY PT      0300   74 75  150/ 10/ 14 1016.5F   1/ 2
YORK RVR RNG VA  0300   74     200/ 11/ 13 1015.9F
YORKTOWN VA      0300   72 76  210/  5/  7 1016.1F
JAMESTOWN VA     0400   72 77  190/ 10/ 12   N/A
DOMINION TERM VA 0300   73     190/ 12/ 15 1016.5F
KIPTOPEKE VA     0300      76  200/ 14/ 19   N/A
CHES BAY BRIDGE  0300   74 76  170/ 12/ 16 1016.6F
CAPE HENRY VA    0300   73     180/  7/ 11   N/A
WILLOUBY STN VA  0300   74     200/ 13/ 15   N/A
CAPE HENRY BUOY  0312      76                N/A     3/ 4
1ST LANDING BUOY 0400   74 76  200/ 10/ 12 1016.3F   1/ 3
CAPE CHARLES BUO 0326      76                N/A     3/ 4
OFFSHORE WE BUOY 0321      75                N/A     3/ 8
64NM E OF VA BCH 0350   74 74  170/ 10/ 12 1017.2F   3/ 5   3/ 5
DUCK PIER NC     0300   75 76  160/ 10/ 11 1016.8F
44056 DUCK FRF   0311      76                N/A     3/ 8
OREGON INLET NC  0300   75 76  140/  4/  9 1017.6F
HATTERAS NC      0300   78 78  160/ 11/ 16 1017.3F
DIAMOND SHLS NC  0350   79 84  160/ 16/ 17 1017.0F   4/ 8   2/ 8
CAPE LOOKOUT NC  0400   78     160/  6/  7 1016.6F
$$




USA.gov is the U.S. government's official web portal to all federal, state and local government web resources and services.